[[{"header":{"parameterUnit":"m.s-1","parameterCategory":1,"la1":30.2991,"la2":30.254,"lo1":-89.0895,"lo2":-89.0444,"dy":0.0017,"dx":0.0017,"nx":28,"ny":28,"refTime":"2024-04-21T03:00:00:Z","depth":0,"parameterNumber":2,"parameterNumberName":"U-component_of_WINDS"},"data":[0,0,0,0,0,0,0,0,0,0,0,0,0,0,0,0,0,0,0,0,0,0,0,0,0,0,0,0,0,0,0,0,0,0,0,0,0,0,0,0,0,0,0,0,0,0,0,0,0,0,0,0,0,0,0,0,0,0,-2.2396,-2.2397,0,-2.2474,-2.2475,-2.2476,-2.2422,-2.242,-2.2417,-2.2415,-2.2495,-2.2499,-2.2504,0,0,0,0,0,0,0,0,0,0,0,0,0,-2.2198,-2.2201,-2.2396,-2.2397,-2.2398,-2.2474,-2.2475,-2.2476,-2.2423,-2.242,-2.2417,-2.2414,-2.2494,-2.2499,-2.2504,0,0,0,0,0,0,0,0,0,0,0,0,0,-2.2281,-2.2203,-2.2396,-2.238,-2.238,-2.2474,-2.2475,-2.2477,-2.2423,-2.242,-2.2416,-2.2413,-2.2492,-2.2498,-2.2505,-2.2619,0,0,-2.2525,-2.2528,0,0,0,0,0,0,0,0,-2.2276,-2.2288,-2.2382,-2.2381,-2.2381,-2.2435,-2.2435,-2.2524,-2.2424,-2.2407,-2.2415,-2.2411,-2.2478,-2.2485,-2.2508,-2.2622,-2.2626,-2.2526,-2.253,-2.2532,-2.2534,0,0,0,0,0,0,0,-2.227,-2.2284,-2.2427,-2.2383,-2.2383,-2.2369,-2.2377,-2.2451,-2.2462,-2.2408,-2.2404,-2.2414,-2.2477,-2.2502,-2.251,-2.2627,-2.2525,-2.2531,-2.2535,-2.2538,-2.2835,-2.2839,0,0,0,0,0,0,-2.2266,-2.228,-2.2424,-2.2429,-2.2318,-2.2375,-2.2384,-2.2421,-2.2461,-2.2463,-2.2417,-2.2412,-2.2493,-2.2502,-2.2512,-2.2646,-2.2532,-2.2539,-2.2542,-2.2831,-2.2836,-2.284,0,0,0,0,0,0,-2.2262,-2.228,-2.2421,-2.2354,-2.2371,-2.2383,-2.2425,-2.2425,-2.2449,-2.2468,-2.2469,-2.2441,-2.249,-2.2503,-2.2592,-2.2648,-2.2542,-2.2548,-2.2827,-2.2833,-2.2838,-2.2915,0,0,0,0,0,0,-2.2257,-2.2278,-2.2322,-2.2355,-2.2374,-2.25,-2.2428,-2.2429,-2.2461,-2.2454,-2.249,-2.2493,-2.2488,-2.2582,-2.2598,-2.2655,-2.2553,-2.2822,-2.2829,-2.2836,-2.2908,-2.2923,-2.2936,0,0,0,0,0,-2.225,-2.2341,-2.2325,-2.2342,-2.2429,-2.2504,-2.2515,-2.2507,-2.2466,-2.2509,-2.2521,-2.2492,-2.264,-2.2592,-2.261,-2.2669,-2.2818,-2.2827,-2.2836,-2.2901,-2.292,-2.2936,0,0,0,0,0,0,-2.2315,-2.2345,-2.2327,-2.2432,-2.2466,-2.2494,-2.2549,-2.2528,-2.2574,-2.2565,-2.2554,-2.2563,-2.2655,-2.2671,-2.2618,-2.278,-2.2722,-2.2735,-2.2766,-2.2784,-2.2798,-2.2791,-2.2558,0,0,0,0,0,-2.2342,-2.24,-2.2423,-2.2513,-2.2531,-2.2537,-2.2569,-2.2561,-2.2595,-2.2609,-2.2627,-2.2661,-2.2714,-2.275,-2.2801,-2.291,-2.2916,-2.2959,-2.2974,-2.2985,-2.2996,-2.3052,-2.3071,-2.287,-2.2869,-2.2869,0,0,-2.2397,-2.2421,-2.2458,-2.2527,-2.2552,-2.2611,-2.255,-2.2616,-2.2659,-2.2619,-2.2703,-2.2718,-2.2755,-2.2854,-2.2898,-2.287,-2.3053,-2.2997,-2.3006,-2.301,-2.3063,-2.3082,-2.3099,-2.2876,-2.2875,-2.2874,0,0,-2.2528,-2.2553,-2.2629,-2.2655,-2.2694,-2.2697,-2.2716,-2.2748,-2.2755,-2.284,-2.281,-2.2862,-2.2955,-2.2982,-2.3008,-2.3148,-2.3122,-2.3165,-2.3238,-2.3293,-2.3309,-2.3323,-2.3371,-2.3388,-2.3176,-2.3176,-2.3176,0,-2.2592,-2.268,-2.2671,-2.2739,-2.2769,-2.2735,-2.2812,-2.2838,-2.2891,-2.2912,-2.288,-2.2995,-2.3018,-2.3121,-2.3155,-2.3178,-2.3197,-2.316,-2.3308,-2.3322,-2.3335,-2.338,-2.3398,-2.3181,-2.318,-2.318,-2.3179,0,-2.2756,-2.2818,-2.2875,-2.2926,-2.2963,-2.3035,-2.3036,-2.3074,-2.3063,-2.3069,-2.3155,-2.3181,-2.3235,-2.3259,-2.3249,-2.3361,-2.3342,-2.3309,-2.3251,-2.3359,-2.3401,-2.3418,-2.3188,-2.3186,-2.3184,-2.3183,0,0,-2.2929,-2.2974,-2.2995,-2.3017,-2.3056,-2.3103,-2.3173,-2.3226,-2.3258,-2.3296,-2.3353,-2.3432,-2.3402,-2.3431,-2.3423,-2.3472,-2.3578,-2.3433,-2.3433,-2.3457,-2.37,-2.3723,-2.3743,-2.3562,-2.3565,-2.3568,-2.3696,0,-2.306,-2.3182,-2.3175,-2.3289,-2.3345,-2.3313,-2.3373,-2.3404,-2.3412,-2.3459,-2.3468,-2.3524,-2.348,-2.3497,-2.3544,-2.3555,-2.3626,-2.3546,-2.3613,-2.3615,-2.3602,-2.3765,-2.379,-2.391,-2.3713,-2.3715,-2.3718,0,-2.3229,-2.3272,-2.3391,-2.342,-2.3443,-2.3498,-2.3544,-2.3591,-2.3624,-2.3626,-2.3659,-2.3643,-2.3712,-2.3653,-2.3747,-2.3693,-2.372,-2.3729,-2.3734,-2.3738,-2.3671,-2.3772,-2.3948,-2.3965,-2.3744,-2.3742,-2.374,0,-2.3341,-2.3428,-2.351,-2.353,-2.3567,-2.3605,-2.3622,-2.3652,-2.3683,-2.3725,-2.3744,-2.3793,-2.382,-2.3857,-2.3854,-2.3812,-2.3949,-2.3891,-2.3951,-2.3951,-2.398,-2.3978,-2.4161,-2.4001,-2.4001,-2.4001,-2.4,0,-2.3486,-2.356,-2.356,-2.361,-2.3691,-2.3683,-2.3763,-2.3775,-2.3802,-2.3853,-2.3829,-2.3878,-2.3872,-2.392,-2.3918,-2.3995,-2.4008,-2.401,-2.4008,-2.4011,-2.401,-2.4027,-2.4018,-2.4006,-2.4005,-2.4004,-2.4003,0,-2.3624,-2.3627,-2.3714,-2.3741,-2.375,-2.3808,-2.3831,-2.3878,-2.3883,-2.3948,-2.3963,-2.3972,-2.4028,-2.4029,-2.4093,-2.4091,-2.4184,-2.4175,-2.4173,-2.417,-2.423,-2.4223,-2.4428,-2.4454,-2.428,-2.4282,-2.4283,0,-2.3715,-2.3771,-2.3804,-2.3836,-2.3856,-2.3909,-2.394,-2.3934,-2.3968,-2.4009,-2.405,-2.4104,-2.4146,-2.4236,-2.4248,-2.4296,-2.4286,-2.4354,-2.4293,-2.4293,-2.4283,-2.4279,-2.4284,-2.4365,-2.4367,-2.4369,-2.437,0,-2.3877,-2.3875,-2.3922,-2.3969,-2.4008,-2.4045,-2.4079,-2.4107,-2.4104,-2.4143,-2.4199,-2.4232,-2.4297,-2.4349,-2.4396,-2.4412,-2.439,-2.439,-2.4406,-2.4408,-2.4404,-2.4404,-2.4203,-2.4385,-2.4383,-2.4382,-2.4381,-2.4381,-2.3992,-2.4039,-2.4069,-2.4121,-2.4146,-2.4178,-2.4223,-2.4234,-2.4281,-2.4333,-2.4326,-2.4389,-2.4419,-2.4479,-2.4499,-2.4547,-2.4523,-2.4547,-2.4553,-2.4558,-2.4563,-2.4398,-2.4556,-2.4556,-2.4555,-2.4555,-2.4555,0,-2.415,-2.4167,-2.4216,-2.4263,-2.4304,-2.4281,-2.4317,-2.4352,-2.4407,-2.4437,-2.4479,-2.4543,-2.4593,-2.4609,-2.4657,-2.4692,-2.4683,-2.4705,-2.4701,-2.4705,-2.4583,-2.4563,-2.4711,-2.4711,-2.4711,-2.4711,-2.4711,-2.4711,-2.4236,-2.4313,-2.4316,-2.4404,-2.4421,-2.4482,-2.4504,-2.4533,-2.4556,-2.4629,-2.467,-2.468,-2.4704,-2.4754,-2.4799,-2.4802,-2.482,-2.4845,-2.4844,-2.473,-2.4714,-2.4699,-2.468,-2.485,-2.485,-2.4961,-2.4962,-2.4963]},{"header":{"parameterUnit":"m.s-1","parameterCategory":1,"la1":30.2991,"la2":30.254,"lo1":-89.0895,"lo2":-89.0444,"dy":0.0017,"dx":0.0017,"nx":28,"ny":28,"refTime":"2024-04-21T03:00:00:Z","depth":0,"parameterNumber":3,"parameterNumberName":"V-component_of_WINDS"},"data":[0,0,0,0,0,0,0,0,0,0,0,0,0,0,0,0,0,0,0,0,0,0,0,0,0,0,0,0,0,0,0,0,0,0,0,0,0,0,0,0,0,0,0,0,0,0,0,0,0,0,0,0,0,0,0,0,0,0,-2.5699,-2.5699,0,-2.5766,-2.5767,-2.5767,-2.5758,-2.5757,-2.5755,-2.5754,-2.5821,-2.5824,-2.5827,0,0,0,0,0,0,0,0,0,0,0,0,0,-2.556,-2.5562,-2.5699,-2.57,-2.57,-2.5766,-2.5767,-2.5768,-2.5758,-2.5756,-2.5755,-2.5754,-2.5821,-2.5824,-2.5827,0,0,0,0,0,0,0,0,0,0,0,0,0,-2.5623,-2.5563,-2.5699,-2.5703,-2.5705,-2.5766,-2.5767,-2.5768,-2.5758,-2.5756,-2.5755,-2.5753,-2.5819,-2.5824,-2.5828,-2.5888,0,0,-2.5841,-2.5843,0,0,0,0,0,0,0,0,-2.5619,-2.5628,-2.5702,-2.5703,-2.5705,-2.5752,-2.5742,-2.5808,-2.5759,-2.5738,-2.5754,-2.5752,-2.5799,-2.5805,-2.5821,-2.5891,-2.5894,-2.5841,-2.5844,-2.5845,-2.5847,0,0,0,0,0,0,0,-2.5615,-2.5625,-2.5725,-2.5703,-2.5705,-2.5701,-2.5709,-2.5755,-2.5777,-2.5739,-2.5739,-2.5747,-2.58,-2.5817,-2.5823,-2.5895,-2.5841,-2.5845,-2.5847,-2.5849,-2.6014,-2.6016,0,0,0,0,0,0,-2.5609,-2.5621,-2.5723,-2.5727,-2.5657,-2.5705,-2.5713,-2.5738,-2.5777,-2.5781,-2.5748,-2.5746,-2.5811,-2.5818,-2.5825,-2.5896,-2.5845,-2.5849,-2.5852,-2.6012,-2.6015,-2.6017,0,0,0,0,0,0,-2.5606,-2.5619,-2.572,-2.5674,-2.5687,-2.571,-2.5738,-2.574,-2.5758,-2.5783,-2.5787,-2.5762,-2.581,-2.5819,-2.5872,-2.5899,-2.5851,-2.5855,-2.601,-2.6013,-2.6016,-2.604,0,0,0,0,0,0,-2.5603,-2.5618,-2.5641,-2.5675,-2.5689,-2.5767,-2.5739,-2.5743,-2.5766,-2.5763,-2.5798,-2.5802,-2.5809,-2.5866,-2.5876,-2.5904,-2.5858,-2.6008,-2.6011,-2.6015,-2.6037,-2.6043,-2.6049,0,0,0,0,0,-2.5598,-2.5646,-2.5643,-2.5655,-2.572,-2.5768,-2.5776,-2.5785,-2.5768,-2.5791,-2.5807,-2.58,-2.5894,-2.5871,-2.5883,-2.5912,-2.6006,-2.601,-2.6014,-2.6034,-2.6042,-2.6049,0,0,0,0,0,0,-2.5614,-2.565,-2.5647,-2.5708,-2.5735,-2.5766,-2.5796,-2.5793,-2.5826,-2.5822,-2.5831,-2.5839,-2.5891,-2.5907,-2.5881,-2.5971,-2.5948,-2.5954,-2.5959,-2.5966,-2.5972,-2.5967,-2.5862,0,0,0,0,0,-2.5625,-2.5662,-2.5691,-2.5742,-2.5756,-2.5774,-2.5795,-2.5799,-2.5828,-2.5839,-2.5859,-2.5887,-2.5922,-2.5945,-2.598,-2.6039,-2.6046,-2.6065,-2.6071,-2.6076,-2.6081,-2.6112,-2.6121,-2.603,-2.603,-2.603,0,0,-2.5648,-2.5672,-2.5695,-2.5746,-2.5767,-2.5805,-2.5783,-2.5824,-2.5852,-2.5845,-2.5896,-2.5911,-2.5942,-2.5998,-2.6024,-2.6013,-2.6108,-2.6081,-2.6085,-2.6088,-2.6117,-2.6126,-2.6134,-2.6033,-2.6032,-2.6032,0,0,-2.5707,-2.573,-2.5774,-2.5796,-2.5829,-2.5841,-2.5851,-2.5883,-2.5893,-2.5944,-2.594,-2.5972,-2.6033,-2.6055,-2.6074,-2.6141,-2.6135,-2.6152,-2.6183,-2.6213,-2.622,-2.6226,-2.6249,-2.6257,-2.6157,-2.6158,-2.6158,0,-2.5731,-2.5788,-2.5797,-2.5837,-2.5859,-2.5856,-2.5899,-2.592,-2.5962,-2.5977,-2.5964,-2.604,-2.6061,-2.6121,-2.6137,-2.6154,-2.6165,-2.6148,-2.6218,-2.6225,-2.6231,-2.6252,-2.6261,-2.6159,-2.6159,-2.6159,-2.6159,0,-2.5814,-2.5854,-2.5885,-2.5926,-2.5951,-2.5993,-2.6007,-2.6032,-2.6034,-2.6046,-2.6097,-2.6122,-2.616,-2.6175,-2.6177,-2.6235,-2.6227,-2.6216,-2.6193,-2.6241,-2.6261,-2.6269,-2.6162,-2.6161,-2.6161,-2.616,0,0,-2.5886,-2.5931,-2.5942,-2.596,-2.5996,-2.6026,-2.6067,-2.6105,-2.6125,-2.6155,-2.6188,-2.624,-2.623,-2.6252,-2.6256,-2.6283,-2.6332,-2.6269,-2.6269,-2.6278,-2.6396,-2.6403,-2.6412,-2.6329,-2.6331,-2.6332,-2.6393,0,-2.5948,-2.6022,-2.603,-2.6095,-2.6131,-2.6127,-2.6163,-2.6188,-2.6201,-2.6232,-2.6246,-2.6281,-2.6266,-2.6279,-2.6305,-2.6321,-2.6356,-2.6317,-2.6359,-2.6361,-2.635,-2.6423,-2.6431,-2.6487,-2.6401,-2.6402,-2.6403,0,-2.6031,-2.6062,-2.6131,-2.616,-2.6175,-2.6207,-2.6242,-2.6272,-2.63,-2.6307,-2.6331,-2.6332,-2.6373,-2.6349,-2.6405,-2.6378,-2.6396,-2.6406,-2.6408,-2.6412,-2.6384,-2.6427,-2.6505,-2.6513,-2.6416,-2.6415,-2.6414,0,-2.6075,-2.6134,-2.6182,-2.6198,-2.6234,-2.6256,-2.6272,-2.6299,-2.632,-2.635,-2.6364,-2.6399,-2.6417,-2.6443,-2.6453,-2.6435,-2.6508,-2.6485,-2.6514,-2.6514,-2.6529,-2.6528,-2.661,-2.6543,-2.6543,-2.6542,-2.6542,0,-2.6142,-2.6184,-2.6202,-2.6232,-2.6278,-2.6287,-2.6332,-2.6347,-2.637,-2.6401,-2.6401,-2.643,-2.6442,-2.6473,-2.648,-2.6525,-2.6534,-2.6539,-2.6541,-2.6539,-2.6538,-2.655,-2.6546,-2.6545,-2.6544,-2.6544,-2.6543,0,-2.6199,-2.6213,-2.6265,-2.6295,-2.6303,-2.6335,-2.636,-2.6388,-2.64,-2.644,-2.645,-2.6469,-2.6505,-2.6517,-2.6561,-2.6566,-2.6618,-2.6616,-2.6608,-2.6608,-2.6636,-2.6633,-2.6728,-2.674,-2.6666,-2.6667,-2.6667,0,-2.624,-2.6272,-2.6305,-2.6326,-2.6343,-2.6377,-2.6399,-2.6409,-2.6432,-2.6466,-2.6489,-2.6525,-2.6554,-2.6612,-2.6629,-2.6663,-2.6661,-2.6692,-2.6666,-2.6663,-2.666,-2.6657,-2.666,-2.6697,-2.6697,-2.6698,-2.6699,0,-2.6312,-2.6317,-2.6349,-2.6384,-2.641,-2.6437,-2.6463,-2.6481,-2.6494,-2.652,-2.6557,-2.6579,-2.6624,-2.6659,-2.6693,-2.6709,-2.6705,-2.6707,-2.6715,-2.6713,-2.6706,-2.6708,-2.662,-2.6704,-2.6704,-2.6703,-2.6703,-2.6703,-2.6362,-2.6389,-2.6416,-2.6451,-2.6472,-2.6497,-2.6524,-2.6539,-2.657,-2.6608,-2.6612,-2.6651,-2.6677,-2.6722,-2.6739,-2.677,-2.6761,-2.6773,-2.6776,-2.6779,-2.678,-2.6702,-2.6776,-2.6776,-2.6776,-2.6776,-2.6775,0,-2.6432,-2.6449,-2.6482,-2.6518,-2.6546,-2.6541,-2.6569,-2.6592,-2.6627,-2.6652,-2.6681,-2.6723,-2.6757,-2.6776,-2.681,-2.683,-2.6829,-2.6839,-2.6837,-2.684,-2.6787,-2.6775,-2.6839,-2.6839,-2.6838,-2.6838,-2.6838,-2.6838,-2.6472,-2.6518,-2.6526,-2.6581,-2.6598,-2.6637,-2.6654,-2.6676,-2.6695,-2.6742,-2.677,-2.6783,-2.6805,-2.684,-2.6871,-2.6875,-2.6887,-2.6897,-2.6901,-2.685,-2.6844,-2.6838,-2.6827,-2.69,-2.69,-2.6951,-2.6952,-2.6952]}]]